« Back
NWS Peachtree City, Ga » Text Product » GA Regional Weather Roundup


Printer-friendly Version
Current Version              Previous Versions:   1  2  3  4  5  6  7  8  9  

Regional Weather Roundup

621
ASUS42 KFFC 222103
RWRGA
WEATHER ROUNDUP FOR GEORGIA
NATIONAL WEATHER SERVICE PEACHTREE CITY GA
500 PM EDT WED OCT 22 2014

NOTE: "FAIR" INDICATES FEW OR NO CLOUDS BELOW 12,000 FEET WITH NO
SIGNIFICANT WEATHER AND/OR OBSTRUCTIONS TO VISIBILITY.

* = USE WITH CAUTION. THE STATIONS MARKED WITH AN ASTERISK MAY NOT
REPORT WEATHER SUCH AS PRECIPITATION, FOG, OR THUNDER AND ARE NOT
QUALITY CONTROLLED BY NWS.

THE REMARK "TC" DENOTES TEMPERATURE READING IN DEGREES CELSIUS.

GAZ001>058-222200-
NORTH GEORGIA

CITY           SKY/WX    TMP DP  RH WIND       PRES   REMARKS
ATLANTA        SUNNY     70  37  29 N6        30.05F
ATHENS         SUNNY     69  36  29 VRB5      30.05F
CHAMBLEE       SUNNY     69  39  33 VRB6      30.05F
PEACHTREE CITY SUNNY     70  40  33 N7        30.07S
ROME           SUNNY     66  41  40 N14       30.09F
WEST ATLANTA   SUNNY     69  43  38 NW14      30.06S
GAINESVILLE    SUNNY     70  34  26 VRB3      30.06F
CARTERSVILLE   SUNNY     66  40  38 VRB7G16   30.09F


CITY           SKY/WX    TMP DP  RH WIND       PRES   REMARKS
DALTON*        SUNNY     61  43  51 N13       30.12F
LAWRENCEVILLE* SUNNY     70  36  28 N5        30.04F
MARIETTA       SUNNY     68  44  41 NW13      30.06F
KENNESAW*      SUNNY     64  39  39 N8G16     30.09F
$$

GAZ059>098-102>109-222200-
CENTRAL GEORGIA

CITY           SKY/WX    TMP DP  RH WIND       PRES   REMARKS
AUGUSTA-BUSH   SUNNY     70  38  31 N12       30.02S
AUGUSTA-DANIEL SUNNY     69  39  33 N9        30.04S
COLUMBUS       SUNNY     72  40  31 N9        30.05S
MACON          SUNNY     71  42  35 N10       30.04F
ROBINS AFB     SUNNY     70  45  40 N9        30.04S


CITY           SKY/WX    TMP DP  RH WIND       PRES   REMARKS
LAGRANGE*      SUNNY     73  43  34 N7        30.06S
SYLVANIA*      SUNNY     75  45  34 N5        30.03S
MILLEDGEVILLE* SUNNY     68  48  49 NW3       30.05F
$$

GAZ099>101-110>166-222200-
SOUTH GEORGIA

CITY           SKY/WX    TMP DP  RH WIND       PRES   REMARKS
SAVANNAH       SUNNY     72  43  35 N8        30.01S
VALDOSTA       SUNNY     76  44  32 N6        29.99S
ALMA           SUNNY     72  43  35 VRB6      30.01F
ST SIMONS      SUNNY     68  51  54 NE8       30.00S
FT STEWART     SUNNY     70  44  38 N8        30.00S
ALBANY         SUNNY     74  43  32 NE8       30.04S
HUNTER AFB     SUNNY     70  43  36 NW10      29.99S
MOODY AFB      SUNNY     75  44  33 N10       30.00S
BRUNSWICK      SUNNY     72  45  37 N5        30.02R


CITY           SKY/WX    TMP DP  RH WIND       PRES   REMARKS
BAINBRIDGE*    SUNNY     79  48  34 NW7       30.00F
MOULTRIE*      SUNNY     73  45  35 N9        30.01S
VIDALIA*       SUNNY     72  45  37 N7        30.02F
WAYCROSS*      SUNNY     75  48  38 N3        30.01S
DOUGLAS*       SUNNY     73  41  31 N6        30.03S
$$



USA.gov is the U.S. government's official web portal to all federal, state and local government web resources and services.